Lufkin, TX

7:36 AM CST on December 14, 2019 (GMT -0600)
Angelina County

Weather History for KLFK - November, 2019

Change the Weather History Date:

Thursday, November 14, 2019

  Actual Average Record
Temperature  
Mean Temperature 41 °F 59 °F  
Max Temperature 45 °F 70 °F 87 °F (1910)
Min Temperature 37 °F 47 °F 25 °F (1969)
Degree Days  
Heating Degree Days 24 7  
Month to date heating degree days 189 82  
Since 1 July heating degree days 272 148  
Cooling Degree Days 0 1  
Month to date cooling degree days 11 24  
Year to date cooling degree days 2638 2568  
Moisture  
Dew Point 39 °F    
Average Humidity 89    
Maximum Humidity 100    
Minimum Humidity 70    
Precipitation  
Precipitation 0.38 in 0.18 in 3.22 in (1954)
Month to date precipitation 0.53 2.43  
Year to date precipitation 39.23 41.93  
Snow  
Snow 0.00 in - - ()
Month to date snowfall 0.0  
Since 1 July snowfall 0.0  
Since 1 September snowfall 0.0  
Snow Depth 0.00 in    
Sea Level Pressure  
Sea Level Pressure 30.30 in    
Wind  
Wind Speed 3 mph ()    
Max Wind Speed 8 mph    
Max Gust Speed 12 mph    
Visibility 6.7 miles    
Events Fog , Rain    
T = Trace of Precipitation, MM = Missing Value Source: Averaged Metar Reports

Daily Weather History Graph

Daily Weather History Graph

Search for Another Location

Airport or City:

Astronomy

Nov. 14, 2019 Rise Set
Actual Time 6:45 AM CST 5:21 PM CST
Civil Twilight 6:19 AM CST 5:46 PM CST
Nautical Twilight 5:50 AM CST 6:16 PM CST
Astronomical Twilight 5:21 AM CST 6:44 PM CST
Moon 7:12 PM CST 8:37 AM CST
Length of Visible Light 11h 27m
Length of Day
10h 35m
Waning Gibbous, 95% of the Moon is Illuminated
Nov 14
Waning Gibbous
Nov 19
Last Quarter
Nov 26
New
Dec 4
First Quarter
Dec 11
Full

Hourly Weather History & Observations

Time (CST) Temp. Windchill Dew Point Humidity Pressure Visibility Wind Dir Wind Speed Gust Speed Precip Events Conditions
12:53 AM 42.1 °F 38.4 °F 36.0 °F 79% 30.21 in 10.0 mi ENE 5.8 mph - N/A   Overcast
1:53 AM 43.0 °F 41.3 °F 34.0 °F 71% 30.21 in 10.0 mi NE 3.5 mph - N/A   Overcast
2:53 AM 42.1 °F - 36.0 °F 79% 30.21 in 10.0 mi Calm Calm - 0.00 in Rain Light Rain
3:53 AM 43.0 °F - 35.1 °F 74% 30.21 in 10.0 mi Calm Calm - 0.00 in   Overcast
4:50 AM 42.8 °F - 37.4 °F 81% 30.21 in 10.0 mi Calm Calm - 0.00 in   Overcast
4:53 AM 42.1 °F - 37.0 °F 82% 30.21 in 10.0 mi Calm Calm - 0.00 in   Overcast
5:03 AM 42.1 °F - 37.0 °F 82% 30.21 in 10.0 mi Calm Calm - N/A   Overcast
5:33 AM 43.0 °F - 37.9 °F 82% 30.22 in 10.0 mi Calm Calm - N/A   Overcast
5:53 AM 42.1 °F 40.2 °F 37.9 °F 85% 30.23 in 10.0 mi North 3.5 mph - N/A   Overcast
6:29 AM 42.1 °F 39.2 °F 37.9 °F 85% 30.24 in 10.0 mi NNE 4.6 mph - N/A   Overcast
6:41 AM 43.0 °F 41.3 °F 37.9 °F 82% 30.24 in 10.0 mi NE 3.5 mph - N/A   Overcast
6:53 AM 43.0 °F - 37.9 °F 82% 30.25 in 10.0 mi Calm Calm - N/A   Overcast
7:53 AM 43.0 °F 41.3 °F 37.9 °F 82% 30.27 in 10.0 mi NE 3.5 mph - 0.00 in Rain Light Rain
8:04 AM 43.0 °F 40.3 °F 39.0 °F 86% 30.27 in 9.0 mi NNE 4.6 mph - 0.00 in Rain Light Rain
8:53 AM 43.0 °F 41.3 °F 39.0 °F 86% 30.29 in 6.0 mi East 3.5 mph - 0.02 in Rain Light Rain
9:10 AM 43.0 °F 41.3 °F 39.0 °F 86% 30.29 in 8.0 mi NE 3.5 mph - 0.01 in Rain Light Rain
9:21 AM 43.0 °F 41.3 °F 39.0 °F 86% 30.30 in 8.0 mi East 3.5 mph - 0.02 in Rain Light Rain
9:30 AM 42.1 °F - 39.0 °F 89% 30.31 in 9.0 mi Calm Calm - 0.02 in Rain Light Rain
9:53 AM 43.0 °F 41.3 °F 39.0 °F 86% 30.31 in 9.0 mi East 3.5 mph - 0.03 in Rain Light Rain
11:12 AM 43.0 °F - 39.9 °F 89% 30.30 in 7.0 mi Calm Calm - 0.01 in   Unknown
11:53 AM 44.1 °F 42.5 °F 42.1 °F 93% 30.30 in 2.5 mi NW 3.5 mph - 0.06 in Rain Rain
12:02 PM 44.1 °F 42.5 °F 41.0 °F 89% 30.31 in 2.5 mi NNW 3.5 mph - 0.01 in Rain Rain
12:08 PM 44.1 °F 42.5 °F 42.1 °F 93% 30.30 in 3.0 mi North 3.5 mph - 0.03 in Rain Rain
12:53 PM 44.1 °F 40.8 °F 41.0 °F 89% 30.29 in 5.0 mi North 5.8 mph - 0.09 in Rain Light Rain
1:43 PM 44.1 °F 41.5 °F 42.1 °F 93% 30.27 in 8.0 mi North 4.6 mph - 0.02 in Rain Light Rain
1:53 PM 44.1 °F 40.8 °F 42.1 °F 93% 30.28 in 8.0 mi NNW 5.8 mph - 0.03 in Rain Light Rain
2:19 PM 44.1 °F 40.8 °F 41.0 °F 89% 30.28 in 10.0 mi NNW 5.8 mph - 0.02 in Rain Light Rain
2:53 PM 44.1 °F 40.1 °F 41.0 °F 89% 30.28 in 10.0 mi North 6.9 mph - 0.04 in Rain Light Rain
3:15 PM 44.1 °F 40.1 °F 41.0 °F 89% 30.28 in 10.0 mi NNW 6.9 mph - 0.01 in Rain Light Rain
3:53 PM 43.0 °F 40.3 °F 41.0 °F 93% 30.29 in 7.0 mi NNW 4.6 mph - 0.03 in Rain Light Rain
4:03 PM 43.0 °F 39.5 °F 41.0 °F 93% 30.29 in 9.0 mi NNW 5.8 mph - 0.01 in Rain Light Rain
4:37 PM 43.0 °F 39.5 °F 41.0 °F 93% 30.29 in 7.0 mi North 5.8 mph - 0.04 in Rain Rain
4:53 PM 43.0 °F 40.3 °F 41.0 °F 93% 30.30 in 10.0 mi North 4.6 mph - 0.04 in   Overcast
5:01 PM 43.0 °F 40.3 °F 41.0 °F 93% 30.30 in 10.0 mi NNW 4.6 mph - N/A   Overcast
5:53 PM 43.0 °F 39.5 °F 41.0 °F 93% 30.32 in 10.0 mi North 5.8 mph - N/A   Overcast
6:51 PM 42.8 °F 41.1 °F 41.0 °F 93% 30.32 in 9.0 mi Variable 3.5 mph - N/A   Overcast
6:53 PM 43.0 °F 41.3 °F 41.0 °F 93% 30.32 in 9.0 mi North 3.5 mph - N/A   Overcast
7:53 PM 44.1 °F 42.5 °F 41.0 °F 89% 30.35 in 7.0 mi NNW 3.5 mph - N/A   Overcast
8:30 PM 44.1 °F - 42.1 °F 93% 30.35 in 7.0 mi Calm Calm - N/A   Overcast
8:53 PM 43.0 °F - 41.0 °F 93% 30.36 in 6.0 mi Calm Calm - N/A   Overcast
9:25 PM 42.1 °F - 39.9 °F 92% 30.36 in 1.8 mi Calm Calm - N/A   Partly Cloudy
9:30 PM 42.1 °F - 39.9 °F 92% 30.36 in 0.5 mi Calm Calm - N/A Fog Fog
9:38 PM 41.0 °F - 39.0 °F 93% 30.37 in 0.2 mi Calm Calm - N/A Fog Fog
9:53 PM 39.9 °F - 39.0 °F 97% 30.37 in 0.2 mi Calm Calm - N/A Fog Fog
10:33 PM 37.9 °F - 36.0 °F 93% 30.37 in 0.2 mi Calm Calm - N/A Fog Fog
10:41 PM 39.0 °F - 37.0 °F 93% 30.37 in 0.5 mi Calm Calm - N/A Fog Fog
10:49 PM 39.2 °F - 37.4 °F 93% 30.37 in 0.2 mi Calm Calm - N/A Fog Fog
10:53 PM 39.0 °F - 37.9 °F 96% 30.37 in 0.2 mi Calm Calm - N/A Fog Fog
11:06 PM 39.9 °F 37.8 °F 37.9 °F 93% 30.37 in 0.5 mi NNW 3.5 mph - N/A Fog Fog
11:39 PM 37.9 °F 35.5 °F 37.0 °F 97% 30.37 in 0.2 mi NNW 3.5 mph - N/A Fog Fog
11:53 PM 37.9 °F - 37.0 °F 97% 30.37 in 0.2 mi Calm Calm - N/A Fog Fog